Location: Beetenbrück
(52.8113°N, 9.5946°E)
Time: 22:33:21
(UTC+00:00)

Cosmos 2074 Rocket - Pass Details

Date: 14 April 2026
Orbit: 967 x 984 km, 82.9° (Epoch: 12 May)

Event Time Altitude Azimuth Distance (km) Brightness Sun altitude
Rises 18:47:14 0° 189° (S) 3,655 6.9 -4.8°
Reaches altitude 10° 18:49:44 10° 190° (S) 2,714 6.2 -5.2°
Maximum altitude 18:55:58 87° 279° (W) 986 4.1 -6.0°
Drops below altitude 10° 19:02:17 10° 10° (N) 2,745 6.6 -6.9°
Sets 19:04:49 0° 11° (N) 3,699 7.2 -7.2°
